owner,sensor,date,latitude,longitude,vertical_datum,direction_of_sea_water_velocity,sea_water_speed,upward_sea_water_velocity,qcFlag 
TABS,ioos:station:wmo:42044:1,1999-03-01T00:00:00Z,26.1914,-97.0507,2.0,325.36881,19.91919928,-99999.0,'11111222,11111222,99999999' 
TABS,ioos:station:wmo:42044:1,1999-03-01T00:30:00Z,26.1914,-97.0507,2.0,324.7243322,19.34148391,-99999.0,'11111222,11111222,99999999' 
TABS,ioos:station:wmo:42044:1,1999-03-01T01:00:00Z,26.1914,-97.0507,2.0,341.0924491,22.99054153,-99999.0,'11111222,11111222,99999999' 
TABS,ioos:station:wmo:42044:1,1999-03-01T01:30:00Z,26.1914,-97.0507,2.0,347.0056241,19.87907946,-99999.0,'11111222,11111222,99999999' 
TABS,ioos:station:wmo:42044:1,1999-03-01T02:00:00Z,26.1914,-97.0507,2.0,353.0637966,18.46515096,-99999.0,'11111222,11111222,99999999' 
TABS,ioos:station:wmo:42044:1,1999-03-01T02:30:00Z,26.1914,-97.0507,2.0,358.5213055,17.43580798,-99999.0,'11111222,11111222,99999999' 
TABS,ioos:station:wmo:42044:1,1999-03-01T03:00:00Z,26.1914,-97.0507,2.0,358.0942368,18.0399806,-99999.0,'11111222,11111222,99999999' 
TABS,ioos:station:wmo:42044:1,1999-03-01T03:30:00Z,26.1914,-97.0507,2.0,1.331052146,19.37522645,-99999.0,'11111222,11111222,99999999' 
TABS,ioos:station:wmo:42044:1,1999-03-01T04:00:00Z,26.1914,-97.0507,2.0,2.154699124,19.68391475,-99999.0,'11111222,11111222,99999999' 
TABS,ioos:station:wmo:42044:1,1999-03-01T04:30:00Z,26.1914,-97.0507,2.0,6.463075939,21.14437277,-99999.0,'11111222,11111222,99999999' 
TABS,ioos:station:wmo:42044:1,1999-03-01T05:00:00Z,26.1914,-97.0507,2.0,9.536614726,21.60862096,-99999.0,'11111222,11111222,99999999' 
TABS,ioos:station:wmo:42044:1,1999-03-01T05:30:00Z,26.1914,-97.0507,2.0,10.39283031,19.84557381,-99999.0,'11111222,11111222,99999999' 
TABS,ioos:station:wmo:42044:1,1999-03-01T06:00:00Z,26.1914,-97.0507,2.0,5.548826193,20.06401007,-99999.0,'11111222,11111222,99999999' 
TABS,ioos:station:wmo:42044:1,1999-03-01T06:30:00Z,26.1914,-97.0507,2.0,10.19659362,19.37601094,-99999.0,'11111222,11111222,99999999' 
TABS,ioos:station:wmo:42044:1,1999-03-01T07:00:00Z,26.1914,-97.0507,2.0,3.988354585,19.26665513,-99999.0,'11111222,11111222,99999999' 
TABS,ioos:station:wmo:42044:1,1999-03-01T07:30:00Z,26.1914,-97.0507,2.0,12.17682611,19.05878538,-99999.0,'11111222,11111222,99999999' 
TABS,ioos:station:wmo:42044:1,1999-03-01T08:00:00Z,26.1914,-97.0507,2.0,15.1157248,19.44267986,-99999.0,'11111222,11111222,99999999' 
TABS,ioos:station:wmo:42044:1,1999-03-01T08:30:00Z,26.1914,-97.0507,2.0,15.76305796,18.11108224,-99999.0,'11111222,11111222,99999999' 
TABS,ioos:station:wmo:42044:1,1999-03-01T09:00:00Z,26.1914,-97.0507,2.0,21.19003999,15.65872281,-99999.0,'11111222,11111222,99999999' 
TABS,ioos:station:wmo:42044:1,1999-03-01T09:30:00Z,26.1914,-97.0507,2.0,15.81516797,17.50252839,-99999.0,'11111222,11111222,99999999' 
TABS,ioos:station:wmo:42044:1,1999-03-01T10:00:00Z,26.1914,-97.0507,2.0,19.63067783,18.18705584,-99999.0,'11111222,11111222,99999999' 
TABS,ioos:station:wmo:42044:1,1999-03-01T10:30:00Z,26.1914,-97.0507,2.0,22.70913353,15.82694222,-99999.0,'11111222,11111222,99999999' 
TABS,ioos:station:wmo:42044:1,1999-03-01T11:00:00Z,26.1914,-97.0507,2.0,34.7728714,15.41232299,-99999.0,'11111222,11111222,99999999' 
TABS,ioos:station:wmo:42044:1,1999-03-01T11:30:00Z,26.1914,-97.0507,2.0,36.56455426,17.25624525,-99999.0,'11111222,11111222,99999999' 
TABS,ioos:station:wmo:42044:1,1999-03-01T12:00:00Z,26.1914,-97.0507,2.0,27.76702977,15.99140394,-99999.0,'11111222,11111222,99999999' 
TABS,ioos:station:wmo:42044:1,1999-03-01T12:30:00Z,26.1914,-97.0507,2.0,23.06107912,17.48744121,-99999.0,'11111222,11111222,99999999' 
TABS,ioos:station:wmo:42044:1,1999-03-01T13:00:00Z,26.1914,-97.0507,2.0,28.11136465,17.40294515,-99999.0,'11111222,11111222,99999999' 
TABS,ioos:station:wmo:42044:1,1999-03-01T13:30:00Z,26.1914,-97.0507,2.0,22.75198415,20.03928392,-99999.0,'11111222,11111222,99999999' 
TABS,ioos:station:wmo:42044:1,1999-03-01T14:00:00Z,26.1914,-97.0507,2.0,26.07837451,15.263951,-99999.0,'11111222,11111222,99999999' 
TABS,ioos:station:wmo:42044:1,1999-03-01T14:30:00Z,26.1914,-97.0507,2.0,32.23535864,19.55393822,-99999.0,'11111222,11111222,99999999' 
TABS,ioos:station:wmo:42044:1,1999-03-01T15:00:00Z,26.1914,-97.0507,2.0,40.6412888,24.93399286,-99999.0,'11111222,11111222,99999999' 
TABS,ioos:station:wmo:42044:1,1999-03-01T15:30:00Z,26.1914,-97.0507,2.0,43.46249039,35.31148538,-99999.0,'11111222,11111222,99999999' 
TABS,ioos:station:wmo:42044:1,1999-03-01T16:00:00Z,26.1914,-97.0507,2.0,44.14050271,34.87843173,-99999.0,'11111222,11111222,99999999' 
TABS,ioos:station:wmo:42044:1,1999-03-01T16:30:00Z,26.1914,-97.0507,2.0,47.29842712,41.96519034,-99999.0,'11111222,11111222,99999999' 
TABS,ioos:station:wmo:42044:1,1999-03-01T17:00:00Z,26.1914,-97.0507,2.0,23.471392,28.42159918,-99999.0,'11111222,11111222,99999999' 
TABS,ioos:station:wmo:42044:1,1999-03-01T17:30:00Z,26.1914,-97.0507,2.0,24.36611596,36.47924615,-99999.0,'11111222,11111222,99999999' 
TABS,ioos:station:wmo:42044:1,1999-03-01T18:00:00Z,26.1914,-97.0507,2.0,8.986204489,26.69767406,-99999.0,'11111222,11111222,99999999' 
TABS,ioos:station:wmo:42044:1,1999-03-01T18:30:00Z,26.1914,-97.0507,2.0,8.770652393,32.26729769,-99999.0,'11111222,11111222,99999999' 
TABS,ioos:station:wmo:42044:1,1999-03-01T19:00:00Z,26.1914,-97.0507,2.0,4.536271952,31.99020162,-99999.0,'11111222,11111222,99999999' 
TABS,ioos:station:wmo:42044:1,1999-03-01T19:30:00Z,26.1914,-97.0507,2.0,0.983448806,26.22386127,-99999.0,'11111222,11111222,99999999' 
TABS,ioos:station:wmo:42044:1,1999-03-01T20:00:00Z,26.1914,-97.0507,2.0,357.9306034,32.95149466,-99999.0,'11111222,11111222,99999999' 
TABS,ioos:station:wmo:42044:1,1999-03-01T20:30:00Z,26.1914,-97.0507,2.0,20.70644508,45.08206406,-99999.0,'11111222,11111222,99999999' 
TABS,ioos:station:wmo:42044:1,1999-03-01T21:00:00Z,26.1914,-97.0507,2.0,7.04662036,38.88368552,-99999.0,'11111222,11111222,99999999' 
TABS,ioos:station:wmo:42044:1,1999-03-01T21:30:00Z,26.1914,-97.0507,2.0,11.13181111,37.81137395,-99999.0,'11111222,11111222,99999999' 
TABS,ioos:station:wmo:42044:1,1999-03-01T22:00:00Z,26.1914,-97.0507,2.0,5.984459429,39.9979662,-99999.0,'11111222,11111222,99999999' 
TABS,ioos:station:wmo:42044:1,1999-03-01T22:30:00Z,26.1914,-97.0507,2.0,6.198073599,40.01388259,-99999.0,'11111222,11111222,99999999' 
TABS,ioos:station:wmo:42044:1,1999-03-01T23:00:00Z,26.1914,-97.0507,2.0,5.852993903,40.89316936,-99999.0,'11111222,11111222,99999999' 
TABS,ioos:station:wmo:42044:1,1999-03-01T23:30:00Z,26.1914,-97.0507,2.0,357.5736046,35.19155723,-99999.0,'11111222,11111222,99999999' 
TABS,ioos:station:wmo:42044:1,1999-03-02T00:00:00Z,26.1914,-97.0507,2.0,345.168585,31.44777417,-99999.0,'11111222,11111222,99999999' 
TABS,ioos:station:wmo:42044:1,1999-03-02T00:30:00Z,26.1914,-97.0507,2.0,353.1742254,32.56080159,-99999.0,'11111222,11111222,99999999' 
TABS,ioos:station:wmo:42044:1,1999-03-02T01:00:00Z,26.1914,-97.0507,2.0,9.160764797,41.20553361,-99999.0,'11111222,11111222,99999999' 
TABS,ioos:station:wmo:42044:1,1999-03-02T01:30:00Z,26.1914,-97.0507,2.0,8.249428477,39.44815839,-99999.0,'11111222,11111222,99999999' 
TABS,ioos:station:wmo:42044:1,1999-03-02T02:00:00Z,26.1914,-97.0507,2.0,8.713136764,39.34404275,-99999.0,'11111222,11111222,99999999' 
TABS,ioos:station:wmo:42044:1,1999-03-02T02:30:00Z,26.1914,-97.0507,2.0,9.010074277,39.97321603,-99999.0,'11111222,11111222,99999999' 
TABS,ioos:station:wmo:42044:1,1999-03-02T03:00:00Z,26.1914,-97.0507,2.0,8.252720208,38.38750057,-99999.0,'11111222,11111222,99999999' 
TABS,ioos:station:wmo:42044:1,1999-03-02T03:30:00Z,26.1914,-97.0507,2.0,10.15217069,40.56510076,-99999.0,'11111222,11111222,99999999' 
TABS,ioos:station:wmo:42044:1,1999-03-02T04:00:00Z,26.1914,-97.0507,2.0,10.56871736,40.61905218,-99999.0,'11111222,11111222,99999999' 
TABS,ioos:station:wmo:42044:1,1999-03-02T04:30:00Z,26.1914,-97.0507,2.0,10.53997617,43.18867444,-99999.0,'11111222,11111222,99999999' 
TABS,ioos:station:wmo:42044:1,1999-03-02T05:00:00Z,26.1914,-97.0507,2.0,5.557429673,44.60966711,-99999.0,'11111222,11111222,99999999' 
TABS,ioos:station:wmo:42044:1,1999-03-02T05:30:00Z,26.1914,-97.0507,2.0,6.415014009,46.63196007,-99999.0,'11111222,11111222,99999999' 
TABS,ioos:station:wmo:42044:1,1999-03-02T06:00:00Z,26.1914,-97.0507,2.0,4.287631409,49.75924839,-99999.0,'11111222,11111222,99999999' 
TABS,ioos:station:wmo:42044:1,1999-03-02T06:30:00Z,26.1914,-97.0507,2.0,3.664846357,48.97013171,-99999.0,'11111222,11111222,99999999' 
TABS,ioos:station:wmo:42044:1,1999-03-02T07:00:00Z,26.1914,-97.0507,2.0,5.33557178,49.6852624,-99999.0,'11111222,11111222,99999999' 
TABS,ioos:station:wmo:42044:1,1999-03-02T07:30:00Z,26.1914,-97.0507,2.0,5.547255258,50.89834968,-99999.0,'11111222,11111222,99999999' 
TABS,ioos:station:wmo:42044:1,1999-03-02T08:00:00Z,26.1914,-97.0507,2.0,3.949938317,51.97344418,-99999.0,'11111222,11111222,99999999' 
TABS,ioos:station:wmo:42044:1,1999-03-02T08:30:00Z,26.1914,-97.0507,2.0,3.619875547,51.95364184,-99999.0,'11111222,11111222,99999999' 
TABS,ioos:station:wmo:42044:1,1999-03-02T09:00:00Z,26.1914,-97.0507,2.0,1.403714273,48.58457574,-99999.0,'11111222,11111222,99999999' 
TABS,ioos:station:wmo:42044:1,1999-03-02T09:30:00Z,26.1914,-97.0507,2.0,5.029944272,47.56315065,-99999.0,'11111222,11111222,99999999' 
TABS,ioos:station:wmo:42044:1,1999-03-02T10:00:00Z,26.1914,-97.0507,2.0,4.04624824,44.36056131,-99999.0,'11111222,11111222,99999999' 
TABS,ioos:station:wmo:42044:1,1999-03-02T10:30:00Z,26.1914,-97.0507,2.0,6.582621389,45.44960506,-99999.0,'11111222,11111222,99999999' 
TABS,ioos:station:wmo:42044:1,1999-03-02T11:00:00Z,26.1914,-97.0507,2.0,4.922355289,41.72386967,-99999.0,'11111222,11111222,99999999' 
TABS,ioos:station:wmo:42044:1,1999-03-02T11:30:00Z,26.1914,-97.0507,2.0,5.408688243,42.6498769,-99999.0,'11111222,11111222,99999999' 
TABS,ioos:station:wmo:42044:1,1999-03-02T12:00:00Z,26.1914,-97.0507,2.0,9.234978209,41.81192414,-99999.0,'11111222,11111222,99999999' 
TABS,ioos:station:wmo:42044:1,1999-03-02T12:30:00Z,26.1914,-97.0507,2.0,7.847522819,39.25763238,-99999.0,'11111222,11111222,99999999' 
TABS,ioos:station:wmo:42044:1,1999-03-02T13:00:00Z,26.1914,-97.0507,2.0,11.03928825,37.34092929,-99999.0,'11111222,11111222,99999999' 
TABS,ioos:station:wmo:42044:1,1999-03-02T13:30:00Z,26.1914,-97.0507,2.0,9.228514105,36.22890697,-99999.0,'11111222,11111222,99999999' 
TABS,ioos:station:wmo:42044:1,1999-03-02T16:00:00Z,26.1914,-97.0507,2.0,22.61606488,44.54538472,-99999.0,'11111222,11111222,99999999' 
TABS,ioos:station:wmo:42044:1,1999-03-02T16:30:00Z,26.1914,-97.0507,2.0,10.85621637,40.35216103,-99999.0,'11111222,11111222,99999999' 
TABS,ioos:station:wmo:42044:1,1999-03-02T17:00:00Z,26.1914,-97.0507,2.0,0.000210459,39.19,-99999.0,'11111222,11111222,99999999' 
TABS,ioos:station:wmo:42044:1,1999-03-02T17:30:00Z,26.1914,-97.0507,2.0,3.722349938,38.97220805,-99999.0,'11111222,11111222,99999999' 
TABS,ioos:station:wmo:42044:1,1999-03-02T18:00:00Z,26.1914,-97.0507,2.0,357.069927,40.88345631,-99999.0,'11111222,11111222,99999999' 
TABS,ioos:station:wmo:42044:1,1999-03-02T18:30:00Z,26.1914,-97.0507,2.0,2.985562265,42.81810949,-99999.0,'11111222,11111222,99999999' 
TABS,ioos:station:wmo:42044:1,1999-03-02T19:00:00Z,26.1914,-97.0507,2.0,0.201907509,42.61026402,-99999.0,'11111222,11111222,99999999' 
TABS,ioos:station:wmo:42044:1,1999-03-02T19:30:00Z,26.1914,-97.0507,2.0,2.046950184,45.91929551,-99999.0,'11111222,11111222,99999999' 
TABS,ioos:station:wmo:42044:1,1999-03-02T20:00:00Z,26.1914,-97.0507,2.0,6.132102323,44.65549126,-99999.0,'11111222,11111222,99999999' 
TABS,ioos:station:wmo:42044:1,1999-03-02T20:30:00Z,26.1914,-97.0507,2.0,3.99057487,49.28948975,-99999.0,'11111222,11111222,99999999' 
TABS,ioos:station:wmo:42044:1,1999-03-02T21:00:00Z,26.1914,-97.0507,2.0,7.013202641,47.58601685,-99999.0,'11111222,11111222,99999999' 
TABS,ioos:station:wmo:42044:1,1999-03-02T21:30:00Z,26.1914,-97.0507,2.0,5.006573949,46.06574107,-99999.0,'11111222,11111222,99999999' 
TABS,ioos:station:wmo:42044:1,1999-03-02T22:00:00Z,26.1914,-97.0507,2.0,2.59937954,46.08741368,-99999.0,'11111222,11111222,99999999' 
TABS,ioos:station:wmo:42044:1,1999-03-02T22:30:00Z,26.1914,-97.0507,2.0,3.028080301,47.89686629,-99999.0,'11111222,11111222,99999999' 
TABS,ioos:station:wmo:42044:1,1999-03-02T23:00:00Z,26.1914,-97.0507,2.0,9.377358259,47.56561153,-99999.0,'11111222,11111222,99999999' 
TABS,ioos:station:wmo:42044:1,1999-03-02T23:30:00Z,26.1914,-97.0507,2.0,358.8036437,42.61929375,-99999.0,'11111222,11111222,99999999' 
TABS,ioos:station:wmo:42044:1,1999-03-03T00:00:00Z,26.1914,-97.0507,2.0,348.0720902,40.35128251,-99999.0,'11111222,11111222,99999999' 
TABS,ioos:station:wmo:42044:1,1999-03-03T00:30:00Z,26.1914,-97.0507,2.0,15.68145347,44.10145122,-99999.0,'11111222,11111222,99999999' 
TABS,ioos:station:wmo:42044:1,1999-03-03T01:00:00Z,26.1914,-97.0507,2.0,1.599931185,42.62661375,-99999.0,'11111222,11111222,99999999' 
TABS,ioos:station:wmo:42044:1,1999-03-03T01:30:00Z,26.1914,-97.0507,2.0,0.901483448,38.14471916,-99999.0,'11111222,11111222,99999999' 
TABS,ioos:station:wmo:42044:1,1999-03-03T02:00:00Z,26.1914,-97.0507,2.0,1.074015258,39.48693455,-99999.0,'11111222,11111222,99999999' 
TABS,ioos:station:wmo:42044:1,1999-03-03T02:30:00Z,26.1914,-97.0507,2.0,0.665721067,38.74261349,-99999.0,'11111222,11111222,99999999' 
TABS,ioos:station:wmo:42044:1,1999-03-03T03:00:00Z,26.1914,-97.0507,2.0,359.7766334,38.44029266,-99999.0,'11111222,11144222,99999999' 
TABS,ioos:station:wmo:42044:1,1999-03-03T03:30:00Z,26.1914,-97.0507,2.0,1.253670346,33.82809483,-99999.0,'11111222,11111222,99999999' 
TABS,ioos:station:wmo:42044:1,1999-03-03T04:00:00Z,26.1914,-97.0507,2.0,7.944887864,32.34040507,-99999.0,'11111222,11111222,99999999' 
TABS,ioos:station:wmo:42044:1,1999-03-03T04:30:00Z,26.1914,-97.0507,2.0,10.72122956,28.81294327,-99999.0,'11111222,11111222,99999999' 
TABS,ioos:station:wmo:42044:1,1999-03-03T05:00:00Z,26.1914,-97.0507,2.0,346.5740173,17.31317417,-99999.0,'11111222,11111222,99999999' 
TABS,ioos:station:wmo:42044:1,1999-03-03T05:30:00Z,26.1914,-97.0507,2.0,355.1452102,14.06044807,-99999.0,'11111222,11111222,99999999' 
TABS,ioos:station:wmo:42044:1,1999-03-03T06:00:00Z,26.1914,-97.0507,2.0,355.4906424,17.04276093,-99999.0,'11111222,11111222,99999999' 
TABS,ioos:station:wmo:42044:1,1999-03-03T06:30:00Z,26.1914,-97.0507,2.0,348.575942,12.77306933,-99999.0,'11111222,11111222,99999999' 
TABS,ioos:station:wmo:42044:1,1999-03-03T07:00:00Z,26.1914,-97.0507,2.0,330.0260339,7.746031242,-99999.0,'11133222,11111222,99999999' 
TABS,ioos:station:wmo:42044:1,1999-03-03T07:30:00Z,26.1914,-97.0507,2.0,294.4311562,7.205137056,-99999.0,'11133222,11111222,99999999' 
TABS,ioos:station:wmo:42044:1,1999-03-03T08:00:00Z,26.1914,-97.0507,2.0,268.8461313,7.451509914,-99999.0,'11133222,11111222,99999999' 
TABS,ioos:station:wmo:42044:1,1999-03-03T08:30:00Z,26.1914,-97.0507,2.0,230.7879636,5.188333066,-99999.0,'11133222,11111222,99999999' 
TABS,ioos:station:wmo:42044:1,1999-03-03T09:00:00Z,26.1914,-97.0507,2.0,219.4364885,6.564586811,-99999.0,'11133222,11111222,99999999' 
TABS,ioos:station:wmo:42044:1,1999-03-03T09:30:00Z,26.1914,-97.0507,2.0,205.9850785,13.26056183,-99999.0,'11111222,11111222,99999999' 
TABS,ioos:station:wmo:42044:1,1999-03-03T10:00:00Z,26.1914,-97.0507,2.0,191.4259811,13.52811886,-99999.0,'11111222,11111222,99999999' 
TABS,ioos:station:wmo:42044:1,1999-03-03T10:30:00Z,26.1914,-97.0507,2.0,187.5818209,18.03770495,-99999.0,'11111222,11111222,99999999' 
TABS,ioos:station:wmo:42044:1,1999-03-03T11:00:00Z,26.1914,-97.0507,2.0,179.627584,23.09048722,-99999.0,'11111222,11111222,99999999' 
TABS,ioos:station:wmo:42044:1,1999-03-03T11:30:00Z,26.1914,-97.0507,2.0,178.792049,28.46632396,-99999.0,'11111222,11111222,99999999' 
TABS,ioos:station:wmo:42044:1,1999-03-03T12:00:00Z,26.1914,-97.0507,2.0,176.2501222,31.9584136,-99999.0,'11111222,11111222,99999999' 
TABS,ioos:station:wmo:42044:1,1999-03-03T12:30:00Z,26.1914,-97.0507,2.0,182.154801,35.6352031,-99999.0,'11111222,11111222,99999999' 
TABS,ioos:station:wmo:42044:1,1999-03-03T13:00:00Z,26.1914,-97.0507,2.0,182.1688217,39.36820672,-99999.0,'11111222,11111222,99999999' 
TABS,ioos:station:wmo:42044:1,1999-03-03T13:30:00Z,26.1914,-97.0507,2.0,182.8129663,39.5276359,-99999.0,'11111222,11111222,99999999' 
TABS,ioos:station:wmo:42044:1,1999-03-03T14:00:00Z,26.1914,-97.0507,2.0,174.2076288,39.83336918,-99999.0,'11111222,11111222,99999999' 
TABS,ioos:station:wmo:42044:1,1999-03-03T14:30:00Z,26.1914,-97.0507,2.0,178.8838797,37.99720648,-99999.0,'11111222,11111222,99999999' 
TABS,ioos:station:wmo:42044:1,1999-03-03T15:00:00Z,26.1914,-97.0507,2.0,188.0691846,41.38981155,-99999.0,'11111222,11111222,99999999' 
TABS,ioos:station:wmo:42044:1,1999-03-03T15:30:00Z,26.1914,-97.0507,2.0,187.1445782,43.09463076,-99999.0,'11111222,11111222,99999999' 
TABS,ioos:station:wmo:42044:1,1999-03-03T16:00:00Z,26.1914,-97.0507,2.0,201.4984472,41.47563261,-99999.0,'11111222,11111222,99999999' 
TABS,ioos:station:wmo:42044:1,1999-03-03T16:30:00Z,26.1914,-97.0507,2.0,206.0630387,45.45206046,-99999.0,'11111222,11111222,99999999' 
TABS,ioos:station:wmo:42044:1,1999-03-03T17:00:00Z,26.1914,-97.0507,2.0,176.9291391,41.6297706,-99999.0,'11111222,11111222,99999999' 
TABS,ioos:station:wmo:42044:1,1999-03-03T17:30:00Z,26.1914,-97.0507,2.0,180.2057893,41.72026965,-99999.0,'11111222,11111222,99999999' 
TABS,ioos:station:wmo:42044:1,1999-03-03T18:00:00Z,26.1914,-97.0507,2.0,172.0377408,37.61258566,-99999.0,'11111222,11111222,99999999' 
TABS,ioos:station:wmo:42044:1,1999-03-03T18:30:00Z,26.1914,-97.0507,2.0,177.3232528,38.33181707,-99999.0,'11111222,11111222,99999999' 
TABS,ioos:station:wmo:42044:1,1999-03-03T19:00:00Z,26.1914,-97.0507,2.0,170.7865637,34.41396519,-99999.0,'11111222,11111222,99999999' 
TABS,ioos:station:wmo:42044:1,1999-03-03T19:30:00Z,26.1914,-97.0507,2.0,184.7133532,39.91499468,-99999.0,'11111222,11111222,99999999' 
TABS,ioos:station:wmo:42044:1,1999-03-03T20:00:00Z,26.1914,-97.0507,2.0,190.9837161,40.67514474,-99999.0,'11111222,11111222,99999999' 
TABS,ioos:station:wmo:42044:1,1999-03-03T20:30:00Z,26.1914,-97.0507,2.0,183.2828137,33.87559594,-99999.0,'11111222,11111222,99999999' 
TABS,ioos:station:wmo:42044:1,1999-03-03T21:00:00Z,26.1914,-97.0507,2.0,183.8395928,35.53978053,-99999.0,'11111222,11111222,99999999' 
TABS,ioos:station:wmo:42044:1,1999-03-03T21:30:00Z,26.1914,-97.0507,2.0,188.3132298,34.02756677,-99999.0,'11111222,11111222,99999999' 
TABS,ioos:station:wmo:42044:1,1999-03-03T22:00:00Z,26.1914,-97.0507,2.0,193.9753745,32.08990651,-99999.0,'11111222,11111222,99999999' 
TABS,ioos:station:wmo:42044:1,1999-03-03T22:30:00Z,26.1914,-97.0507,2.0,180.994118,34.57520643,-99999.0,'11111222,11111222,99999999' 
TABS,ioos:station:wmo:42044:1,1999-03-03T23:00:00Z,26.1914,-97.0507,2.0,189.8403765,33.11725381,-99999.0,'11111222,11111222,99999999' 
TABS,ioos:station:wmo:42044:1,1999-03-03T23:30:00Z,26.1914,-97.0507,2.0,169.9518592,30.72119952,-99999.0,'11111222,11111222,99999999' 
TABS,ioos:station:wmo:42044:1,1999-03-04T00:00:00Z,26.1914,-97.0507,2.0,170.3415583,29.32566282,-99999.0,'11111222,11111222,99999999' 
TABS,ioos:station:wmo:42044:1,1999-03-04T00:30:00Z,26.1914,-97.0507,2.0,172.9624425,24.32323992,-99999.0,'11111222,11111222,99999999' 
TABS,ioos:station:wmo:42044:1,1999-03-04T01:00:00Z,26.1914,-97.0507,2.0,178.0511721,21.76258486,-99999.0,'11111222,11111222,99999999' 
TABS,ioos:station:wmo:42044:1,1999-03-04T01:30:00Z,26.1914,-97.0507,2.0,176.8225959,24.17716278,-99999.0,'11111222,11111222,99999999' 
TABS,ioos:station:wmo:42044:1,1999-03-04T02:00:00Z,26.1914,-97.0507,2.0,181.8118733,23.40170293,-99999.0,'11111222,11111222,99999999' 
TABS,ioos:station:wmo:42044:1,1999-03-04T02:30:00Z,26.1914,-97.0507,2.0,177.7949068,19.2342403,-99999.0,'11111222,11111222,99999999' 
TABS,ioos:station:wmo:42044:1,1999-03-04T03:00:00Z,26.1914,-97.0507,2.0,178.3040322,15.20665973,-99999.0,'11111222,11111222,99999999' 
TABS,ioos:station:wmo:42044:1,1999-03-04T03:30:00Z,26.1914,-97.0507,2.0,181.8022046,14.30707867,-99999.0,'11111222,11111222,99999999' 
TABS,ioos:station:wmo:42044:1,1999-03-04T04:00:00Z,26.1914,-97.0507,2.0,177.5971857,14.31258188,-99999.0,'11111222,11111222,99999999' 
TABS,ioos:station:wmo:42044:1,1999-03-04T04:30:00Z,26.1914,-97.0507,2.0,176.7074079,10.44724366,-99999.0,'11111222,11111222,99999999' 
TABS,ioos:station:wmo:42044:1,1999-03-04T05:00:00Z,26.1914,-97.0507,2.0,196.446062,13.66927211,-99999.0,'11111222,11111222,99999999' 
TABS,ioos:station:wmo:42044:1,1999-03-04T05:30:00Z,26.1914,-97.0507,2.0,200.6378564,12.25656151,-99999.0,'11111222,11111222,99999999' 
TABS,ioos:station:wmo:42044:1,1999-03-04T06:00:00Z,26.1914,-97.0507,2.0,206.9417182,10.19669064,-99999.0,'11111222,11111222,99999999' 
TABS,ioos:station:wmo:42044:1,1999-03-04T06:30:00Z,26.1914,-97.0507,2.0,206.9853998,8.528593084,-99999.0,'11133222,11111222,99999999' 
TABS,ioos:station:wmo:42044:1,1999-03-04T07:00:00Z,26.1914,-97.0507,2.0,217.7715113,5.844724117,-99999.0,'11133222,11111222,99999999' 
TABS,ioos:station:wmo:42044:1,1999-03-04T07:30:00Z,26.1914,-97.0507,2.0,263.0466379,4.956450343,-99999.0,'11133222,11111222,99999999' 
TABS,ioos:station:wmo:42044:1,1999-03-04T08:00:00Z,26.1914,-97.0507,2.0,261.5106551,4.064529493,-99999.0,'11133222,11111222,99999999' 
TABS,ioos:station:wmo:42044:1,1999-03-04T08:30:00Z,26.1914,-97.0507,2.0,270.0004209,3.13,-99999.0,'11133222,11111222,99999999' 
TABS,ioos:station:wmo:42044:1,1999-03-04T09:00:00Z,26.1914,-97.0507,2.0,267.9394729,4.17269697,-99999.0,'11133222,11111222,99999999' 
TABS,ioos:station:wmo:42044:1,1999-03-04T09:30:00Z,26.1914,-97.0507,2.0,321.0348708,4.977328601,-99999.0,'11133222,11111222,99999999' 
TABS,ioos:station:wmo:42044:1,1999-03-04T10:00:00Z,26.1914,-97.0507,2.0,347.5167131,4.117341375,-99999.0,'11133222,11111222,99999999' 
TABS,ioos:station:wmo:42044:1,1999-03-04T10:30:00Z,26.1914,-97.0507,2.0,321.1594643,5.931509083,-99999.0,'11133222,11111222,99999999' 
TABS,ioos:station:wmo:42044:1,1999-03-04T11:00:00Z,26.1914,-97.0507,2.0,334.2389152,4.463630809,-99999.0,'11133222,11111222,99999999' 
TABS,ioos:station:wmo:42044:1,1999-03-04T11:30:00Z,26.1914,-97.0507,2.0,328.5105602,5.417868585,-99999.0,'11133222,11111222,99999999' 
TABS,ioos:station:wmo:42044:1,1999-03-04T12:00:00Z,26.1914,-97.0507,2.0,320.7489657,4.235658154,-99999.0,'11133222,11111222,99999999' 
TABS,ioos:station:wmo:42044:1,1999-03-04T12:30:00Z,26.1914,-97.0507,2.0,345.9963337,4.29773196,-99999.0,'11133222,11111222,99999999' 
TABS,ioos:station:wmo:42044:1,1999-03-04T13:00:00Z,26.1914,-97.0507,2.0,345.6489609,6.61647187,-99999.0,'11133222,11111222,99999999' 
TABS,ioos:station:wmo:42044:1,1999-03-04T13:30:00Z,26.1914,-97.0507,2.0,354.3861601,10.63099243,-99999.0,'11111222,11111222,99999999' 
TABS,ioos:station:wmo:42044:1,1999-03-04T14:00:00Z,26.1914,-97.0507,2.0,343.9469864,12.40368091,-99999.0,'11111222,11111222,99999999' 
TABS,ioos:station:wmo:42044:1,1999-03-04T14:30:00Z,26.1914,-97.0507,2.0,13.51045496,15.32404646,-99999.0,'11111222,11111222,99999999' 
TABS,ioos:station:wmo:42044:1,1999-03-04T15:00:00Z,26.1914,-97.0507,2.0,359.2882051,12.07093203,-99999.0,'11111222,11144222,99999999' 
TABS,ioos:station:wmo:42044:1,1999-03-04T15:30:00Z,26.1914,-97.0507,2.0,8.441314644,19.27884333,-99999.0,'11111222,11111222,99999999' 
TABS,ioos:station:wmo:42044:1,1999-03-04T16:00:00Z,26.1914,-97.0507,2.0,5.993062746,18.58154999,-99999.0,'11111222,11111222,99999999' 
TABS,ioos:station:wmo:42044:1,1999-03-04T16:30:00Z,26.1914,-97.0507,2.0,358.4098098,21.61832787,-99999.0,'11111222,11111222,99999999' 
TABS,ioos:station:wmo:42044:1,1999-03-04T17:00:00Z,26.1914,-97.0507,2.0,349.0783282,22.00865739,-99999.0,'11111222,11111222,99999999' 
TABS,ioos:station:wmo:42044:1,1999-03-04T17:30:00Z,26.1914,-97.0507,2.0,2.797990653,27.452723,-99999.0,'11111222,11111222,99999999' 
TABS,ioos:station:wmo:42044:1,1999-03-04T18:00:00Z,26.1914,-97.0507,2.0,12.58494163,44.42737895,-99999.0,'11111222,11111222,99999999' 